Погода в Кылайы

Россия / Республика Саха (Якутия)     63°13′31″N   132°07′54″E
темп.,
°C
ветер,
м/с
пор.,
м/с
влажн.,
%
обл.,
%
осадки,
мм/ч
давл.,
гПа
погр.,
м
1 марта, пн
пн100:00−28з2598100 0.1 1022172
03:00−29зюз2498100 0.1 1022203
06:00−30зюз2298100 0.1 102373
09:00−29зюз1396100 0.1 1023252
12:00−26юз1289100 0.1 1023457
15:00−26зюз1288100 0.1 1023587
18:00−27зюз1297100 0.1 102421
21:00−28зюз1198100 0.1 102423
2 марта, вт
вт200:00−28зюз1198100 0.1 102430
03:00−29з1298100 0.1 102424
06:00−30зюз1298100 0.1 102521
09:00−30зюз119794 0.1 102576
12:00−26з128898 0.0 1024507
15:00−26з128499 0.0 1024675
18:00−27з1297100 0.1 102534
21:00−29з2399100 0.1 102598
3 марта, ср
ср300:00−30з1299100 0.1 102429
03:00−30з1199100 0.3 102323
06:00−30з1199100 0.1 102320
09:00−29з1196100 0.2 1022143
12:00−27зюз1290100 0.1 1020444
15:00−26з1289100 0.2 1019569
18:00−28з2398100 0.1 1018122
21:00−29з2597100 0.1 1017194
4 марта, чт
чт400:00−30з2597100 0.1 1016235
03:00−31зюз2598100 0.1 1016211
06:00−33зюз249897 0.0 101699
09:00−32з249698 0.1 1017229
12:00−29з2492100 0.0 1017456
15:00−28з3590100 0.1 1017555
18:00−31з3796100 0.0 1019151
21:00−35з379684 0.0 1020169
5 марта, пт
пт500:00−35з379692 0.0 1020188
03:00−36з259694 0.0 1021115
06:00−37зюз2595100 0.0 1021111
09:00−35зюз249397 0.0 1022172
12:00−31з359199 0.0 1021346
15:00−29з3691100 0.0 1021407
18:00−31з3893100 0.0 1022389
21:00−32з3795100 0.0 1022308